Weather History for Hilton Head Island, SC

Change the Weather History Date:

Wednesday, November 7, 2012

  Actual Average Record
Temperature  
Mean Temperature 48 °F -  
Max Temperature 53 °F 69 °F 80 °F (1986)
Min Temperature 42 °F 47 °F 29 °F (1954)
Degree Days  
Heating Degree Days 18    
Moisture  
Dew Point 41 °F    
Average Humidity 83    
Maximum Humidity 100    
Minimum Humidity 58    
Precipitation  
Precipitation 0.00 in - - ()
Sea Level Pressure  
Sea Level Pressure 29.95 in    
Wind  
Wind Speed 8 mph (NNW)    
Max Wind Speed 14 mph    
Max Gust Speed 17 mph    
Visibility 10 miles    
Events      
Averages and records for this station are not official NWS values.
T = Trace of Precipitation, MM = Missing Value Source: NWS Daily Summary

Daily Weather History Graph

Daily Weather History Graph

Search for Another Location

Airport:

Trip Planner

Search our weather history database for the weather conditions in past years. The results will help you decide how hot, cold, wet, or windy it might be!

Date:

Astronomy

Nov. 07, 2012 Rise Set
Actual Time 6:45 AM EST 5:27 PM EST
Civil Twilight 6:19 AM EST 5:52 PM EST
Nautical Twilight 5:50 AM EST 6:22 PM EST
Astronomical Twilight 5:21 AM EST 6:51 PM EST
Moon 12:01 AM EST (11/7) 1:14 PM EST (11/7)
Length of Visible Light 11h 33m
Length of Day
10h 42m
Last Quarter, 43% of the Moon is Illuminated
Nov 7
Last Quarter
Nov 13
New
Nov 20
First Quarter
Nov 28
Full
Dec 6
Last Quarter

Hourly Weather History & Observations

Time (EST) Temp. Windchill Dew Point Humidity Pressure Visibility Wind Dir Wind Speed Gust Speed Precip Events Conditions
12:15 AM 46.4 °F 41.1 °F 42.8 °F 87% 29.92 in 10.0 mi North 11.5 mph - 0.00 in   Clear
12:35 AM 46.4 °F 41.5 °F 41.0 °F 81% 29.91 in 10.0 mi North 10.4 mph - 0.00 in   Clear
12:55 AM 46.4 °F 41.9 °F 41.0 °F 81% 29.92 in 10.0 mi North 9.2 mph - 0.00 in   Clear
1:15 AM 46.4 °F 41.1 °F 41.0 °F 81% 29.92 in 10.0 mi North 11.5 mph - 0.00 in   Clear
1:35 AM 46.4 °F 40.4 °F 41.0 °F 81% 29.92 in 10.0 mi North 13.8 mph 17.3 mph 0.00 in   Clear
1:55 AM 46.4 °F 41.5 °F 41.0 °F 81% 29.92 in 10.0 mi North 10.4 mph 16.1 mph 0.00 in   Clear
2:15 AM 46.4 °F 41.9 °F 42.8 °F 87% 29.91 in 10.0 mi North 9.2 mph 16.1 mph 0.00 in   Mostly Cloudy
2:35 AM 46.4 °F 41.9 °F 41.0 °F 81% 29.91 in 10.0 mi North 9.2 mph - 0.00 in   Overcast
2:55 AM 44.6 °F 39.7 °F 41.0 °F 87% 29.91 in 10.0 mi North 9.2 mph 16.1 mph 0.00 in   Overcast
3:15 AM 44.6 °F 39.7 °F 41.0 °F 87% 29.91 in 10.0 mi North 9.2 mph - 0.00 in   Overcast
3:55 AM 44.6 °F 40.7 °F 41.0 °F 87% 29.91 in 10.0 mi North 6.9 mph - 0.00 in   Overcast
4:15 AM 44.6 °F 40.2 °F 39.2 °F 81% 29.91 in 10.0 mi North 8.1 mph - 0.00 in   Overcast
4:35 AM 44.6 °F 40.2 °F 39.2 °F 81% 29.91 in 10.0 mi North 8.1 mph - 0.00 in   Overcast
6:55 AM 42.8 °F 38.6 °F 39.2 °F 87% 29.94 in 10.0 mi North 6.9 mph - N/A   Mostly Cloudy
7:50 AM 44.6 °F 39.7 °F 41.0 °F 87% 29.96 in 10.0 mi North 9.2 mph - N/A   Mostly Cloudy
8:50 AM 44.6 °F 40.7 °F 39.2 °F 81% 29.96 in 10.0 mi North 6.9 mph - N/A   Mostly Cloudy
9:50 AM 44.6 °F 40.7 °F 39.2 °F 81% 29.97 in 10.0 mi North 6.9 mph - N/A   Mostly Cloudy
10:50 AM 46.4 °F 42.4 °F 39.2 °F 76% 29.96 in 10.0 mi NNW 8.1 mph - N/A   Mostly Cloudy
11:50 AM 48.2 °F - 39.2 °F 71% 29.94 in 10.0 mi NNW 8.1 mph - N/A   Mostly Cloudy
12:50 PM 50.0 °F - 39.2 °F 66% 29.92 in 10.0 mi NNW 6.9 mph - N/A   Mostly Cloudy
1:50 PM 50.0 °F - 39.2 °F 66% 29.90 in 10.0 mi North 8.1 mph - N/A   Mostly Cloudy
2:50 PM 51.8 °F - 39.2 °F 62% 29.89 in 10.0 mi NW 9.2 mph - N/A   Scattered Clouds
3:50 PM 53.6 °F - 39.2 °F 58% 29.89 in 10.0 mi NW 9.2 mph - N/A   Clear
4:50 PM 51.8 °F - 41.0 °F 67% 29.90 in 10.0 mi West 4.6 mph - N/A   Clear
6:50 PM 46.4 °F 45.2 °F 42.8 °F 87% 29.96 in 10.0 mi West 3.5 mph - N/A   Clear
7:50 PM 46.4 °F 45.2 °F 42.8 °F 87% 29.97 in 10.0 mi West 3.5 mph - N/A   Clear
8:15 PM 44.6 °F 43.1 °F 42.8 °F 93% 29.97 in 10.0 mi WSW 3.5 mph - 0.00 in   Scattered Clouds
8:35 PM 44.6 °F 43.1 °F 42.8 °F 93% 29.98 in 10.0 mi West 3.5 mph - 0.00 in   Partly Cloudy
8:55 PM 42.8 °F - 42.8 °F 100% 29.99 in 10.0 mi Calm Calm - 0.00 in   Clear
9:15 PM 44.6 °F 43.1 °F 42.8 °F 93% 30.00 in 10.0 mi NW 3.5 mph - 0.00 in   Clear
9:35 PM 44.6 °F 42.2 °F 42.8 °F 93% 30.00 in 10.0 mi WNW 4.6 mph - 0.00 in   Clear
9:55 PM 46.4 °F 44.3 °F 42.8 °F 87% 30.00 in 10.0 mi WNW 4.6 mph - 0.00 in   Clear
10:15 PM 46.4 °F 44.3 °F 42.8 °F 87% 30.01 in 10.0 mi NW 4.6 mph - 0.00 in   Clear
10:35 PM 46.4 °F 44.3 °F 42.8 °F 87% 30.00 in 9.0 mi WNW 4.6 mph - 0.00 in   Clear
10:55 PM 46.4 °F 45.2 °F 42.8 °F 87% 30.00 in 7.0 mi NW 3.5 mph - 0.00 in   Clear
11:15 PM 46.4 °F - 42.8 °F 87% 30.00 in 10.0 mi Calm Calm - 0.00 in   Clear
11:35 PM 44.6 °F 41.4 °F 42.8 °F 93% 30.00 in 10.0 mi WNW 5.8 mph - 0.00 in   Clear
11:55 PM 44.6 °F 43.1 °F 42.8 °F 93% 30.00 in 10.0 mi West 3.5 mph - 0.00 in   Clear